{"data":{"norad_id":63219,"intl_designator":"2025-052K","name":"TEVEL2-2","alt_names":[],"object_type":"PAYLOAD","status":"ACTIVE","operator":null,"country":"ISRA","launch_date":"2025-03-15","launch_site_code":"AFWTR","launch_vehicle":null,"mission":null,"orbit_class":"UNKNOWN","rcs_meters":null,"size_class":null,"mass_kg":null,"dimensions":null,"purposes":["comms"],"wikipedia_slug":null,"has_3d_model":false,"image_url":null,"decayed_at":null,"tle_current":{"epoch":"2026-09-19T03:49:58.505952Z","epoch_age_seconds":130566,"freshness":"FRESH","line1":"1 63219U 25052K   26262.15970493  .00013009  00000+0  36394-3 0  9991","line2":"2 63219  97.3728 158.2570 0004214 122.5540 237.6112 15.36780306 84516","mean_motion":15.36780306,"eccentricity":0.0004214,"inclination_deg":97.3728,"raan_deg":158.257,"arg_perigee_deg":122.554,"mean_anomaly_deg":237.6112,"bstar":0.00036394,"rev_number":8451,"period_min":93.702398083698,"perigee_km":452.75784981408,"apogee_km":458.51735504901,"semimajor_km":6833.7746024315,"source":"CELESTRAK","updated_at":"2026-09-20T09:00:45.264650Z"}}}